This is the latest recevied weather packets stored in our database for station/object MB7UIK. If no packets are shown the sender has not sent any weather packets the latest 1 day(s).
| Time | Temp. | Humidity | Pressure | Rain* | Wind** | Luminosity | Snow |
|---|---|---|---|---|---|---|---|
| 1777996064 | 16.11° C | 39% | 1010.8 hPa | 0 mm | 1.34 m/s, 69° | - | - |
| 1777996032 | 16.11° C | 39% | 1010.8 hPa | 0 mm | 1.34 m/s, 69° | - | - |
| 1777996006 | 16.11° C | 40% | 1010.7 hPa | 0 mm | 1.79 m/s, 58° | - | - |
| 1777995946 | 16.11° C | 40% | 1010.8 hPa | 0 mm | 1.34 m/s, 18° | - | - |
| 1777995886 | 16.11° C | 40% | 1010.8 hPa | 0 mm | 1.34 m/s, 46° | - | - |
| 1777995824 | 16.11° C | 40% | 1010.8 hPa | 0 mm | 2.68 m/s, 59° | - | - |
| 1777995764 | 15.56° C | 40% | 1010.8 hPa | 0 mm | 1.34 m/s, 41° | - | - |
| 1777995732 | 15.56° C | 40% | 1010.8 hPa | 0 mm | 1.34 m/s, 41° | - | - |
| 1777995704 | 15.56° C | 41% | 1010.8 hPa | 0 mm | 2.68 m/s, 78° | - | - |
| 1777995644 | 15.56° C | 41% | 1010.8 hPa | 0 mm | 1.79 m/s, 360° | - | - |
| 1777995584 | 15.56° C | 41% | 1010.8 hPa | 0 mm | 1.34 m/s, 63° | - | - |
| 1777995524 | 15.56° C | 41% | 1010.8 hPa | 0 mm | 0.89 m/s, 45° | - | - |
| 1777995464 | 15.56° C | 41% | 1010.8 hPa | 0 mm | 3.13 m/s, 33° | - | - |
| 1777995432 | 15.56° C | 41% | 1010.8 hPa | 0 mm | 3.13 m/s, 33° | - | - |
| 1777995404 | 15.56° C | 41% | 1010.8 hPa | 0 mm | 1.34 m/s, 350° | - | - |
| 1777995346 | 15.56° C | 40% | 1010.9 hPa | 0 mm | 2.24 m/s, 50° | - | - |
| 1777995286 | 16.11° C | 40% | 1010.9 hPa | 0 mm | 2.68 m/s, 68° | - | - |
| 1777995225 | 16.11° C | 40% | 1010.9 hPa | 0 mm | 1.79 m/s, 36° | - | - |
| 1777995165 | 16.11° C | 40% | 1010.8 hPa | 0 mm | 3.13 m/s, 38° | - | - |
| 1777995133 | 16.11° C | 40% | 1010.8 hPa | 0 mm | 3.13 m/s, 38° | - | - |
| 1777995104 | 16.11° C | 40% | 1010.8 hPa | 0 mm | 0.89 m/s, 46° | - | - |
| 1777995044 | 16.11° C | 40% | 1010.8 hPa | 0 mm | 0.89 m/s, 346° | - | - |
| 1777994984 | 16.11° C | 40% | 1010.9 hPa | 0 mm | 3.13 m/s, 92° | - | - |
| 1777994924 | 16.11° C | 40% | 1010.8 hPa | 0 mm | 2.24 m/s, 32° | - | - |
| 1777994865 | 16.11° C | 40% | 1010.9 hPa | 0 mm | 1.79 m/s, 51° | - | - |
* Rain latest hour (hover to see other rain measurements)
** Current wind speed in m/s (hover to see current wind gust speed)